Change the Weather History Date:

Wednesday, November 14, 2012

  Actual Average Record
Temperature  
Mean Temperature 31 °F -  
Max Temperature 36 °F 28 °F 51 °F (2001)
Min Temperature 24 °F 16 °F -1 °F (2014)
Degree Days  
Heating Degree Days 34    
Moisture  
Dew Point 24 °F    
Average Humidity 80    
Maximum Humidity 93    
Minimum Humidity 72    
Precipitation  
Precipitation 0.00 in - - ()
Sea Level Pressure  
Sea Level Pressure 30.03 in    
Wind  
Wind Speed 7 mph ()    
Max Wind Speed 13 mph    
Max Gust Speed -    
Visibility 12.9 miles    
Events Snow    
Averages and records for this station are not official NWS values.
T = Trace of Precipitation, MM = Missing Value Source: Averaged Metar Reports

Daily Weather History Graph

Daily Weather History Graph

Search for Another Location

Airport or City:

Trip Planner

Search our weather history database for the weather conditions in past years. The results will help you decide how hot, cold, wet, or windy it might be!

Date:

Astronomy

Nov. 14, 2012 Rise Set
Actual Time 8:10 AM MST 4:43 PM MST
Civil Twilight 7:30 AM MST 5:23 PM MST
Nautical Twilight 6:47 AM MST 6:07 PM MST
Astronomical Twilight 6:05 AM MST 6:48 PM MST
Moon 9:15 AM MST (11/14) 5:25 PM MST (11/14)
Length of Visible Light 9h 52m
Length of Day
8h 33m
New Moon, 1% of the Moon is Illuminated
Nov 14
New Moon
Nov 20
First Quarter
Nov 28
Full
Dec 6
Last Quarter
Dec 13
New

Hourly Weather History & Observations

Time (MST) Temp. Windchill Dew Point Humidity Pressure Visibility Wind Dir Wind Speed Gust Speed Precip Events Conditions
6:00 AM 35.6 °F 27.1 °F 28.4 °F 75% 29.87 in 15.0 mi WNW 12.7 mph - N/A   Overcast
7:00 AM 35.6 °F 28.6 °F 28.4 °F 75% 29.90 in 15.0 mi WNW 9.2 mph - N/A Snow Light Snow Showers
7:32 AM - - - N/A% - 15.0 mi WNW 11.5 mph - N/A   Mostly Cloudy
8:00 AM 33.8 °F 25.3 °F 28.4 °F 81% 29.94 in 15.0 mi West 11.5 mph - N/A   Mostly Cloudy
8:20 AM - - - N/A% - 15.0 mi WNW 9.2 mph - N/A   Unknown
9:00 AM 32.0 °F 23.0 °F 26.6 °F 80% 29.98 in 15.0 mi West 11.5 mph - N/A Snow Light Snow Showers
10:00 AM 30.2 °F 20.8 °F 24.8 °F 80% 30.00 in 10.0 mi WNW 11.5 mph - N/A Snow Light Snow Showers
10:46 AM - - - N/A% - 2.0 mi NNW 9.2 mph - N/A   Unknown
11:00 AM 28 °F - 24 °F 78% 30.06 in 5 mi North 2.3 mph - - Snow Light Snow Showers
11:00 AM 28.4 °F 22.2 °F 24.8 °F 86% 30.06 in 5.0 mi NW 5.8 mph - N/A Snow Light Snow Showers
12:00 PM 28.4 °F 18.5 °F 21.2 °F 74% 30.08 in 10.0 mi WNW 11.5 mph - N/A Snow Light Snow Showers
1:00 PM 28.4 °F - 21.2 °F 74% 30.07 in 15.0 mi Calm Calm - N/A Snow Light Snow Showers
1:39 PM - - - N/A% - 15.0 mi NW 2.3 mph - N/A   Mostly Cloudy
2:00 PM 28.4 °F 22.2 °F 21.2 °F 74% 30.06 in 15.0 mi NW 5.8 mph - N/A   Mostly Cloudy
3:00 PM 28.4 °F - 21.2 °F 74% 30.06 in 15.0 mi Calm Calm - N/A   Overcast
4:00 PM 26.6 °F - 21.2 °F 80% 30.06 in 15.0 mi Calm Calm - N/A   Overcast
5:00 PM 28 °F - 22 °F 72% 30.05 in 15 mi ESE 3.5 mph - -   Overcast
5:00 PM 28.4 °F 24.6 °F 23.0 °F 80% 30.05 in 15.0 mi ESE 3.5 mph - N/A   Overcast
6:00 PM 28.4 °F 21.2 °F 23.0 °F 80% 30.06 in 15.0 mi East 6.9 mph - N/A   Overcast
7:00 PM 26.6 °F 21.2 °F 23.0 °F 86% 30.06 in 15.0 mi East 4.6 mph - N/A   Overcast
8:00 PM 26.6 °F 22.6 °F 23.0 °F 86% 30.05 in 15.0 mi ENE 3.5 mph - N/A   Mostly Cloudy
9:00 PM 26.6 °F - 23.0 °F 86% 30.05 in 12.0 mi East 2.3 mph - N/A   Overcast
10:00 PM 24.8 °F - 23.0 °F 93% 30.05 in 12.0 mi Calm Calm - N/A   Mostly Cloudy